Regional Weather Roundup
Issued by NWS

Home | Current Version | Previous Version | Graphics & Text | Print | Product List | Glossary On
Versions: 1 2 3 4 5 6 7 8 9 10 11 12 13 14 15 16 17 18 19 20 21 22 23 24 25 26
000
ASUS45 KBOU 261407
RWRCO

WEATHER ROUNDUP FOR COLORADO
NATIONAL WEATHER SERVICE DENVER/BOULDER CO
800 AM MDT WED JUL 26 2017

NOTE: "FAIR" INDICATES FEW OR NO CLOUDS BELOW 12000 FEET WITH NO
SIGNIFICANT WEATHER AND/OR OBSTRUCTIONS TO VISIBILITY.

COZ001>005-013-030-031-261500-
...NORTHWEST COLORADO...

CITY           SKY/WX    TMP DP  RH WIND       PRES   REMARKS
CRAIG          CLOUDY    63  60  90 CALM      30.32R
HAYDEN         PTSUNNY   61  54  77 CALM      30.34R
MEEKER         CLOUDY    62  60  93 CALM      30.33R
RABBIT EARS PA LGT RAIN  50  50 100 W7        30.57R VSB<1/4
STEAMBOAT SPGS CLOUDY    59  59  98 CALM      30.35R
WALDEN         CLOUDY    57  54  88 CALM      30.42R
$$

COZ006>008-011-261500-
...WEST CENTRAL VALLEYS...

CITY           SKY/WX    TMP DP  RH WIND       PRES   REMARKS
GRAND JUNCTION PTSUNNY   69  66  90 SE3       30.24R
MONTROSE       FAIR      65  61  87 SE3       30.31R
EAGLE          LGT RAIN  61  57  88 CALM      30.36R
RIFLE          RAIN      63  63 100 CALM      30.28S FOG
DELTA          RAIN      68  61  76 E5        30.28R
NUCLA          FAIR      64  57  77 E7        30.35S
$$

COZ017>023-064>068-261500-
...SOUTHWEST COLORADO...

CITY           SKY/WX    TMP DP  RH WIND       PRES   REMARKS
DURANGO        CLOUDY    61  55  81 N5        30.36R
CORTEZ         FAIR      64  59  83 CALM      30.32R
PAGOSA SPRINGS FAIR      61  58  90 CALM      30.44R
TELLURIDE      PTSUNNY   57  53  88 CALM      30.53R
WOLF CREEK PAS FOG       45  45 100 SW8       30.75R VSB<1/4
$$

COZ009-010-012-014-032>034-037-058>063-261500-
...CENTRAL COLORADO...

CITY           SKY/WX    TMP DP  RH WIND       PRES   REMARKS
ASPEN          PTSUNNY   59  55  87 CALM      30.39S
BUENA VISTA    CLOUDY    57  52  83 CALM      30.42S
COPPER MTN     CLOUDY    54  45  71 SW5       30.69R
BERTHOUD PASS  HAZE      43  30  61 W18       30.70R VSB 1/4
COTTONWOOD PAS CLOUDY    59  50  72 CALM      30.54S
GUNNISON       PTSUNNY   57  53  86 CALM      30.44S
KREMMLING      DRIZZLE   63  59  88 CALM      30.40R
LEADVILLE      CLOUDY    52  48  86 NE3       30.52R
MONARCH PASS   CLOUDY    46  45  93 W25G32    30.78S
SALIDA         CLOUDY    60  55  85 N8        30.46R
SUNLIGHT       CLOUDY    48  46  93 SW12G20   30.62S
WILKERSON PASS PTSUNNY   50  43  76 SW7       30.65S
$$

COZ069>075-261500-
...SAN LUIS VALLEY/SANGRE DE CRISTO MOUNTAINS...

CITY           SKY/WX    TMP DP  RH WIND       PRES   REMARKS
ALAMOSA        FAIR      58  58 100 CALM      30.40S
DEL NORTE      FAIR      57  54  91 W3        30.45R
LA VETA PASS   NOT AVBL
SAGUACHE         N/A    N/A N/A N/A MISG        N/A
$$

COZ035-036-038>040-261500-
...NORTHERN COLORADO FRONT RANGE...

CITY           SKY/WX    TMP DP  RH WIND       PRES   REMARKS
DENVER INTL AP PTSUNNY   68  58  70 N6        30.25R
DMNS CITY PARK   N/A     70  58  65 NE6G14    30.25S
AURORA         PTSUNNY   66  60  80 CALM      30.27R
FRONT RANGE AP CLOUDY    66  61  82 NW6       30.27R
ERIE MUNI ARPT CLOUDY    67  61  79 CALM      30.24R
BOULDER MUN AP CLOUDY    68  59  73 CALM      30.25R
CENTENNIAL     CLOUDY    65  59  81 CALM      30.28R
BROOMFIELD     CLOUDY    68  59  73 NE3       30.28R
FORT COLLINS   CLOUDY    68  60  75 NE7       30.24R
LONGMONT       CLOUDY    70  61  74 CALM      30.25R
$$

COZ041-046-047-076>085-087-088-261500-
...PIKES PEAK/PALMER DIVIDE AND SOUTHERN FOOTHILLS...

CITY           SKY/WX    TMP DP  RH WIND       PRES   REMARKS
COLO. SPRINGS  FAIR      70  58  65 N15       30.28R
A. F. ACADEMY  FAIR      66  56  70 N17       30.28F
SCHRIEVER AFB  FAIR      66  56  69 N12G21    30.28R
CHEYENNE MTN   FAIR      65  55  70 N6        30.27S
ELLICOTT       FAIR     N/A N/A N/A N14       30.27R
FALCON           N/A     65  55  69 N9        30.34R
FORT CARSON    FAIR      69  58  65 N10       30.26R
LIMON          FAIR      66  61  84 NW16      30.23R
MONUMENT HILL  FAIR      59  55  88 N8        30.36R
CANON CITY     SUNNY     70  61  73 MISG      30.24R
WALSENBURG     FAIR      70  61  73 MISG      30.29R
TRINIDAD       FAIR      69  57  65 NW8       30.26R
$$

COZ042>045-048>051-090-091-261500-
...NORTHEAST COLORADO...

CITY           SKY/WX    TMP DP  RH WIND       PRES   REMARKS
GREELEY ARPT   FAIR      68  61  78 NW3       30.23R
AKRON          CLOUDY    68  62  81 N14       30.17S
BURLINGTON     PTSUNNY   70  64  81 NW13G22   30.11R
WRAY           NOT AVBL
YUMA           CLOUDY    68  55  64 N15       30.13R
STERLING       FAIR      72  63  73 N12G18    30.14R
HOLYOKE        CLOUDY    72  64  78 N16       30.10S
FORT MORGAN    FAIR      72  59  64 N9        30.19S
$$

COZ086-089-092>099-261500-
...SOUTHEAST COLORADO...

CITY           SKY/WX    TMP DP  RH WIND       PRES   REMARKS
PUEBLO         FAIR      72  60  66 W3        30.19R
LA JUNTA       FAIR      77  59  53 NW9       30.14R
LAMAR          FAIR      74  63  68 W8        30.07R
SPRINGFIELD      N/A     74  59  59 NW13      30.13R
$$




USA.gov is the U.S. government's official web portal to all federal, state and local government web resources and services.